Home   Weather   Kaiserslautern   Past weeks

Flag for Germany Past Weather in Kaiserslautern, Rhineland-Palatinate, Germany — Yesterday and Last 2 Weeks

Now
54 °F

Passing clouds.


Feels Like: 54 °F
Forecast: 44 / 69 °F
Wind: No wind

Location: Ramstein

Current Time: Sep 26, 2016 at 7:37:07 AM

Latest Report: Sep 26, 2016 at 6:58 AM


Visibility: N/A

Pressure: 30.19 "Hg

Humidity: 99%

Dew Point: 54 °F

Location of KaiserslauternLocation

Past Weather in Kaiserslautern — Graph

°F

Kaiserslautern Temperature Yesterday

Maximum temperature yesterday: 79 °F (at 4:58 PM)
Minimum temperature yesterday: 35 °F (at 6:58 AM)
Average temperature yesterday: 56 °F

High & Low Weather Summary for the Past Weeks

 TemperatureHumidityPressure
High90 °F (Sep 13, 3:58 PM)100% (Sep 11, 5:58 AM)30.33 "Hg (Sep 11, 5:58 AM)
Low35 °F (Sep 22, 7:58 AM)31% (Sep 14, 2:58 PM)29.79 "Hg (Sep 15, 4:58 AM)
Average60 °F82%30.05 "Hg
* Reported Sep 11 5:58 AM — Sep 26 5:58 AM, Kaiserslautern, Weather by CustomWeather, © 2016

Note: Actual official high and low records may vary slightly from our data, if they occured in-between our weather recording intervals... More about our weather records

Advertising

Kaiserslautern Weather History for the Previous 24 Hours

Scroll right to see more
 ConditionsComfort  
Time TempWeatherWind HumidityBarometerVisibility
5:58 AM
Mon, Sep 26
53 °FPassing clouds.No wind99%30.19 "HgN/A
4:58 AM50 °FPartly cloudy.No wind100%30.18 "HgN/A
3:58 AM53 °FPassing clouds.No wind99%30.18 "HgN/A
2:58 AM53 °FPassing clouds.No wind99%30.17 "HgN/A
1:58 AM52 °FPassing clouds.No wind100%30.16 "HgN/A
1:01 AM55 °FPassing clouds.No wind94%30.17 "HgN/A
11:58 PM
Sun, Sep 25
54 °FOvercast.No wind99%30.14 "HgN/A
10:58 PM51 °FPassing clouds.No wind99%30.14 "HgN/A
9:58 PM55 °FClear.No wind88%30.13 "HgN/A
8:58 PM57 °FPassing clouds.No wind88%30.12 "HgN/A
7:58 PM61 °FPassing clouds.No wind79%30.11 "HgN/A
6:58 PM73 °FPassing clouds.5 mph44%30.09 "HgN/A
5:58 PM77 °FSunny.9 mph38%30.07 "HgN/A
4:58 PM79 °FPassing clouds.8 mph37%30.07 "HgN/A
3:58 PM78 °FSunny.5 mph41%30.06 "HgN/A
2:58 PM76 °FSunny.8 mph43%30.07 "HgN/A
1:58 PM75 °FSunny.9 mph45%30.08 "HgN/A
12:58 PM74 °FSunny.10 mph48%30.09 "HgN/A
11:58 AM70 °FSunny.9 mph55%30.11 "HgN/A
10:58 AM59 °FSunny.No wind69%30.13 "HgN/A
9:58 AM53 °FSunny.No wind83%30.14 "HgN/A
8:59 AM44 °FSunny.No wind99%30.16 "HgN/A
7:58 AM37 °FSunny.No wind98%30.16 "HgN/A
Weather by CustomWeather, © 2016

See weather overviewHow to use our weather pages